Regional Weather Roundup
Issued by NWS

Home | Current Version | Previous Version | Graphics & Text | Print | Product List | Glossary On
Versions: 1 2 3 4 5 6 7 8 9 10 11 12 13 14 15 16 17 18 19 20 21 22 23 24 25 26 27 28 29 30 31 32 33 34 35 36 37 38 39 40 41 42 43 44 45 46 47 48 49 50
000
ASUS43 KLMK 220710
RWRKY
KENTUCKY REGIONAL WEATHER ROUNDUP
NATIONAL WEATHER SERVICE LOUISVILLE KY
200 AM EST WED FEB 22 2017

NOTE "FAIR" INDICATES FEW OR NO CLOUDS BELOW 12,000 FEET
WITH NO SIGNIFICANT WEATHER AND/OR OBSTRUCTIONS TO VISIBILITY.

KYZ001>023-026-027-061>063-070>075-220800-
WESTERN AND SOUTH CENTRAL KENTUCKY

CITY           SKY/WX    TMP DP  RH WIND       PRES   REMARKS
PADUCAH        CLOUDY    58  55  90 E3        29.89F FOG
HENDERSON      CLOUDY    57  52  82 SE3       29.88F
OWENSBORO      CLOUDY    58  56  93 S6        29.91S
HOPKINSVILLE   CLOUDY    58  58 100 SE7       29.90F
BOWLING GREEN  CLOUDY    55  54  96 SE5       29.93F FOG
GLASGOW        DRIZZLE  N/A N/A N/A E3        29.94F
$$

KYZ024-025-028>034-038-045-046-053-220800-
NORTH CENTRAL KENTUCKY

CITY           SKY/WX    TMP DP  RH WIND       PRES   REMARKS
LOUISVILLE/SDF CLOUDY    60  54  80 S6        29.92F
LOUISVILLE/LOU CLOUDY    60  54  80 S6        29.92F
FORT KNOX      CLOUDY    55  55 100 SE8       29.91S
$$

KYZ035>037-039>044-047>052-055>060-089>105-220800-
NORTHEAST KENTUCKY

CITY           SKY/WX    TMP DP  RH WIND       PRES   REMARKS
LEXINGTON      LGT RAIN  57  55  93 S5        29.96S
COVINGTON      CLOUDY    55  55 100 S6        29.94F FOG
FRANKFORT      CLOUDY    57  54  89 SE6       29.93F FOG
$$

KYZ054-064>069-076>088-106>120-220800-
SOUTHEAST KENTUCKY

CITY           SKY/WX    TMP DP  RH WIND       PRES   REMARKS
JACKSON        LGT RAIN  55  52  89 CALM      29.98F
LONDON         LGT RAIN  55  52  89 CALM      29.97F FOG
SOMERSET       LGT RAIN  54  54 100 CALM      29.98S
MIDDLESBORO    DRIZZLE   55  53  95 CALM      29.97F
MONTICELLO     LGT RAIN  54  54 100 W7        29.98F FOG
$$




USA.gov is the U.S. government's official web portal to all federal, state and local government web resources and services.